Content
SEND FEEDBACK

Daily
Averages
Monthly
Summary
United States of America

FARMINGDALE, SOUTH DAKOTA


Home > North America > United States > South Dakota
Elevation: 2990 feet     Latitude: 43 59N     Longitude: 102 54W

WEATHER
 
SELECT A DAY
Number of Records: 200,263;   Date Range: 1/1/95 - 7/23/14
 
SHARE

PRINT THIS DATA

[ ← Previous Day ]
WEATHER ALMANAC - MAY 3, 2013
[ Next Day → ]
[ °C ]   °F
Weather ElementAverageHighLow
Temperature44.9 °F59 °F (2:52 pm)26.1 °F (1:52 am)
Dewpoint20.3 °F25 °F (8:52 am)14 °F (11:52 pm)
Humidity41.4 %75 % (1:52 am)21 % (3:52 pm)
Barometer30.25 in30.38 in (1:52 am)30.16 in (3:52 pm)
Wind Speed6.1 mph13.8 mph (5:52 pm)
Wind Gust18.4 mph (4:52 pm)
Weather ElementAverage
Visibility10 mi
Wind DirectionESE (99.1 °)

Weather ElementTotal
Precipitation---
Heating Degree Days22.5 (Base 65)
Averaged from 23 records on May 3, 2013
WEATHER CONDITIONS BREAKOUT
WIND DIRECTION BREAKOUT
WEATHER BY HOUR - MAY 3, 2013
[ °C ]   °F
Local TimeTemperatureDewpointHumidityBarometerVisibilityWind DirectionWind SpeedGust SpeedPrecipitationEventsConditions
1:52 AM26.1 °F19.0 °F75 %30.38 in10.0 miCalmClear
2:52 AM28.0 °F19.9 °F72 %30.36 in10.0 miWest (280°)6.9 mphClear
3:52 AM30.0 °F19.9 °F66 %30.34 in10.0 miWNW (300°)9.2 mphClear
4:52 AM28.9 °F18.0 °F64 %30.34 in10.0 miNorth (350°)3.5 mphClear
5:52 AM26.1 °F16.0 °F66 %30.33 in10.0 miWNW (290°)3.5 mphClear
6:52 AM33.1 °F19.9 °F59 %30.32 in10.0 miCalmClear
7:52 AM42.1 °F21.9 °F45 %30.31 in10.0 miCalmClear
8:52 AM48.0 °F25.0 °F41 %30.28 in10.0 miCalmClear
9:52 AM51.8 °F24.8 °F35 %30.23 in10.0 miENE (70°)8.1 mphClear
10:52 AM55.0 °F24.1 °F30 %30.27 in10.0 miNE (50°)9.2 mphClear
11:52 AM57.0 °F21.0 °F25 %30.24 in10.0 miENE (70°)9.2 mphClear
12:52 PM57.9 °F21.0 °F24 %30.22 in10.0 miVariable5.8 mphClear
1:52 PM57.9 °F19.9 °F23 %30.22 in10.0 miCalmClear
2:52 PM59.0 °F21.0 °F23 %30.19 in10.0 miENE (60°)9.2 mphClear
3:52 PM59.0 °F19.0 °F21 %30.16 in10.0 miEast (100°)3.5 mphClear
4:52 PM59.0 °F21.0 °F23 %30.17 in10.0 miESE (110°)9.2 mph18.4 mphClear
5:52 PM57.9 °F21.9 °F25 %30.17 in10.0 miEast (90°)13.8 mphClear
6:52 PM54.0 °F21.0 °F28 %30.17 in10.0 miEast (100°)12.7 mphClear
7:52 PM46.9 °F21.9 °F37 %30.19 in10.0 miEast (100°)8.1 mphClear
8:52 PM42.1 °F21.0 °F43 %30.21 in10.0 miEast (100°)9.2 mphClear
9:52 PM41.0 °F19.0 °F41 %30.23 in10.0 miEast (90°)11.5 mphClear
10:52 PM37.0 °F17.1 °F44 %30.24 in10.0 miESE (120°)6.9 mphClear
11:52 PM35.1 °F14.0 °F42 %30.24 in10.0 miCalmClear
Hourly data recorded from KRAP, located miles away from Farmingdale, South Dakota







STORIES FROM OUR PARTNERS